Location: Allison Elementary School
(34.0784°N, 117.7317°W)
Time: 07:25:46
(UTC+00:00)

AQUARIUS - Pass Details

Date: 15 November 2019
Orbit: 650 x 652 km, 98.0° (Epoch: 08 December)

Event Time Altitude Azimuth Distance (km) Brightness Sun altitude
Rises 01:09:55 0° 157° (SSE) 2,958 7.5 -5.1°
Reaches altitude 10° 01:12:08 10° 154° (SSE) 2,051 6.7 -5.6°
Maximum altitude 01:16:32 59° 75° (ENE) 758 4.2 -6.4°
Drops below altitude 10° 01:20:57 10° 356° (N) 2,064 6.6 -7.3°
Sets 01:23:12 0° 353° (N) 2,978 7.5 -7.7°
